SCP
0 0 0 -0 -0 -0 0 -0 0 0 0 -0 -0 -0 -0 0 -0 -0 0 0 -0 -0 -0 -0 -0 -0 -0 -0 -0 -0 -0 -0 -0 -0 -0 -0 -0 -0 -0 -0 -0 -0 -0 -0 -0 -0 -0 -0 -0
-0 0 -0 -0 0 0 -0 -0 0 0 -0 0 -0 -0 -0 0 0 -0 0 -0 -0 -0 -0 -0 -0 -0 -0 -0 -0 -0 -0 -0 -0 -0 -0 -0 -0 -0 -0 -0 -0 -0 -0 -0 -0 -0 -0 -0 -0
0 -0 0 0 0 0 0 0 0 0 -0 -0 -0 -0 0 0 0 -0 -0 -0 -0 -0 -0 -0 -0 -0 -0 -0 -0 -0 -0 -0 -0 -0 -0 -0 -0 -0 -0 -0 -0 -0 -0 -0 -0 -0 -0 -0 -0
0 -0 -0 -0 0 0 0 -0 0 0 0 -0 -0 -0 0 0 -0 0 0 -0 -0 -0 -0 -0 -0 -0 -0 -0 -0 -0 -0 -0 -0 -0 -0 -0 -0 -0 -0 -0 -0 -0 -0 -0 -0 -0 -0 -0 -0
0 0 -0 -0 0 0 0 -0 0 0 0 0 0 -0 -0 -0 -0 -0 -0 -0 -0 -0 -0 -0 -0 -0 -0 -0 -0 -0 -0 -0 -0 -0 -0 -0 -0 -0 -0 -0 -0 -0 -0 -0 -0 -0 -0 -0 -0
0 0 -0 -0 0 0 0 0 0 0 0 0 -0 -0 0 0 -0 -0 -0 -0 -0 -0 -0 -0 -0 -0 -0 -0 -0 -0 -0 -0 -0 -0 -0 -0 -0 -0 -0 -0 -0 -0 -0 -0 -0 -0 -0 -0 -0
0 0 0 -0 0 0 0 0 0 0 0 0 -0 0 0 0 -0 -0 -0 -0 -0 -0 -0 -0 -0 -0 -0 -0 -0 -0 -0 -0 -0 -0 -0 -0 -0 -0 -0 -0 0 -0 -0 -0 -0 -0 -0 -0 -0
0 0 0 0 -0 0 0 0 0 0 0 0 0 0 0 0 0 0 -0 -0 -0 -0 0 0 0 0 0 0 0 -0 -0 -0 -0 -0 -0 -0 -0 -0 0 -0 0 -0 -0 -0 -0 -0 0 0 0
0 0 0 0 0 0 0 0 0 0 0 0 0 0 0 0 0 0 0 0 0 0 0 0 0 0 0 0 0 0 -0 -0 -0 -0 -0 -0 0 0 0 0 -0 0 0 -0 0 0 0 0 0
0 0 0 0 0 0 0 0 0 0 0 0 0 0 0 0 0 0 0 0 0 0 0 0 0 0 0 0 0 0 0 0 0 0 0 0 0 0 0 0 0 0 0 0 0 0 0 0 0
0 0 0 0 0 0 0 0 0 0 0 0 0 0 0 0 0 0 0 0 0 0 0 0 0 0 0 0 0 0 0 0 0 0 0 0 0 0 0 0 0 0 0 0 0 0 0 0 0
0 0 0 0 0 0 0 0 0 0 0 0 0 0 0 0 0 0 0 0 0 0 0 0 0 0 0 0 0 0 0 0 0 0 0 0 0 0 0 0 0 0 0 0 0 0 0 0 0
0 0 0 0 0 0 0 0 0 0 0 0 0 0 0 0 0 0 0 0 0 0 0 0 0 0 0 0 0 0 0 0 0 0 0 0 0 0 0 0 0 0 0 0 0 0 0 0 0
0 0 0 0 0 0 0 0 0 0 0 0 0 0 0 0 0 0 0 0 0 0 0 0 0 0 0 0 0 0 0 0 0 0 0 0 0 0 0 0 0 0 0 0 0 0 0 0 0
0 0 0 0 0 0 0 0 0 0 0 0 0 0 0 0 0 0 0 0 0 0 0 0 0 0 0 0 0 0 0 0 0 0 0 0 0 0 0 0 0 0 0 0 0 0 0 0 0
0 0 0 0 0 0 0 0 0 0 0 0 0 0 0 0 0 0 0 0 0 0 0 0 0 0 0 0 0 0 0 0 0 0 0 0 0 0 0 0 0 0 0 0 0 0 0 0 0
0 0 0 0 0 0 0 0 0 0 0 0 0 0 0 0 0 0 0 0 0 0 0 0 0 0 0 0 0 0 0 0 0 0 0 0 0 0 0 0 0 0 0 0 0 0 0 0 0
0 0 0 0 0 0 0 0 0 0 0 0 0 0 0 0 0 0 0 0 0 0 0 0 0 0 0 0 0 0 0 0 0 0 0 0 0 0 0 0 0 0 0 0 0 0 0 0 0
0 0 0 0 0 0 0 0 0 0 0 0 0 0 0 0 0 0 0 0 0 0 0 0 0 0 0 0 0 0 0 0 0 0 0 0 0 0 0 0 0 0 0 0 0 0 0 0 0
0 0 0 0 0 0 0 0 0 0 0 0 0 0 0 0 0 0 0 0 0 0 0 0 0 0 0 0 0 0 0 0 0 0 0 0 0 0 0 0 0 0 0 0 0 0 0 0 0
0 0 0 0 0 0 0 0 0 0 0 0 0 0 0 0 0 0 0 0 0 0 0 0 0 0 0 0 0 0 0 0 0 0 0 0 0 0 0 0 0 0 0 0 0 0 0 0 0
0 0 0 0 0 0 0 -0 0 0 0 0 0 0 0 0 0 0 0 0 0 0 0 0 0 0 0 0 0 0 0 0 0 0 0 0 0 0 0 0 0 0 0 0 0 0 0 0 0
0 0 0 0 0 0 0 0 0 0 0 0 0 0 0 0 0 0 0 0 0 0 0 0 0 0 0 0 0 0 0 0 0 0 0 0 0 0 0 0 0 0 0 0 0 0 0 0 0
0 0 0 0 0 0 0 0 -0 0 0 0 0 0 0 0 0 0 0 0 0 0 0 0 0 0 0 0 0 0 0 0 0 0 0 0 0 0 0 0 0 0 0 0 0 0 0 0 0
0 0 0 0 0 0 0 0 0 0 0 0 0 0 0 0 0 0 0 0 0 0 0 0 0 0 0 0 0 0 0 0 0 0 0 0 0 0 0 0 0 0 0 0 0 0 0 0 0
0 0 0 0 0 0 0 0 0 0 0 0 0 0 0 0 0 0 0 0 0 0 0 0 0 0 0 0 0 0 0 0 0 0 0 0 0 0 0 0 0 0 0 0 0 0 0 0 0
0 0 0 0 0 0 0 0 0 0 0 0 0 0 0 0 0 0 0 0 0 0 0 0 0 0 0 0 0 0 0 0 0 0 0 0 0 0 0 0 0 0 0 0 0 0 0 0 0
0 0 0 0 0 0 0 0 0 0 0 -0 0 0 0 0 0 0 0 0 0 0 0 0 0 0 0 0 0 0 0 0 0 0 0 0 0 0 0 0 0 0 0 0 0 0 0 0 0
0 0 0 0 0 0 0 0 0 0 0 0 0 0 0 0 0 0 0 0 0 0 0 0 0 0 0 0 0 0 0 0 0 0 0 0 0 0 0 0 0 0 0 0 0 0 0 0 0
0 0 0 0 0 0 0 0 0 0 0 0 0 0 0 0 0 0 0 0 0 0 0 0 0 0 0 0 0 0 0 0 0 0 0 0 0 0 0 0 0 0 0 0 0 0 0 0 0
Wind_Speed_500mb
7 5 8 5 8 11 2 3 4 3 7 17 31 31 23 13 5 7 24 18 11 22 31 27 26 26 25 22 18 17 18 17 16 17 19 21 22 25 30 31 29 23 21 21 22 21 22 23 24
9 8 5 7 10 8 6 2 8 7 32 48 40 29 23 7 16 20 10 13 17 25 31 28 26 25 23 20 17 16 15 15 14 12 14 17 20 25 29 31 33 26 22 21 20 19 19 19 20
10 7 4 9 8 9 10 8 12 20 43 12 12 22 9 4 10 14 13 21 23 22 28 29 26 25 23 20 15 14 12 12 12 9 11 14 17 22 26 28 30 30 25 22 20 19 18 16 16
5 5 10 10 7 2 14 13 15 14 11 14 35 17 13 4 6 16 18 25 26 22 26 28 25 24 18 17 16 15 12 11 11 10 12 10 15 20 25 27 28 27 26 23 21 20 19 16 13
8 6 9 8 3 4 5 21 25 10 9 17 10 10 12 24 25 23 21 24 23 24 25 25 26 28 24 17 15 14 12 9 8 10 13 10 15 18 21 24 25 24 22 23 23 22 20 18 13
6 5 10 5 5 3 4 22 20 11 18 18 20 18 13 24 25 26 25 31 31 26 21 23 21 27 27 24 19 20 17 10 6 9 13 11 10 14 18 22 25 22 19 20 22 22 22 21 18
11 8 10 8 9 5 8 14 15 18 19 10 32 11 20 29 28 28 26 35 36 35 33 31 28 26 25 23 20 19 19 10 9 12 14 8 6 9 14 20 23 22 18 19 19 20 21 21 18
6 9 6 4 10 8 7 6 15 25 9 21 22 16 16 41 37 32 31 30 38 36 37 34 36 34 30 28 24 25 23 18 13 12 13 9 8 11 10 13 25 26 24 22 22 20 20 19 19
5 9 2 2 11 8 17 7 7 13 21 11 14 23 22 49 41 36 36 37 38 41 38 34 40 39 36 32 32 29 26 23 19 17 14 11 9 8 12 14 17 18 26 24 24 23 21 23 21
9 8 9 3 6 8 14 13 18 12 14 8 18 27 48 47 42 39 38 38 39 40 39 40 39 41 38 38 33 33 29 25 26 22 20 16 14 14 12 11 11 5 12 21 22 26 27 26 27
4 8 8 4 4 12 13 8 15 21 6 22 34 42 46 46 43 41 40 37 38 40 42 42 42 40 36 41 36 38 38 38 34 28 25 23 19 17 16 11 4 5 4 8 15 17 21 22 20
6 3 5 8 5 7 10 10 10 19 13 24 27 37 43 46 46 45 41 38 36 36 39 41 43 43 41 39 46 42 41 39 39 36 32 29 27 20 28 14 8 4 3 3 7 6 10 12 11
5 3 4 6 8 11 10 13 11 17 20 22 32 37 39 42 44 44 43 41 38 35 36 37 37 38 40 43 48 48 43 41 37 36 34 30 28 33 25 19 15 10 7 1 0 0 3 4 3
6 2 8 11 15 11 11 10 9 19 32 33 37 40 40 40 42 44 43 39 35 32 32 33 34 36 40 46 45 47 44 43 41 35 33 37 39 35 31 24 16 12 11 4 5 12 6 3 2
1 6 11 20 16 10 13 12 20 25 41 42 43 43 43 43 43 43 40 38 36 34 33 33 34 37 41 45 45 46 43 41 38 39 41 38 39 37 30 24 20 17 16 15 15 12 8 6 2
3 6 3 6 19 7 15 18 11 34 50 52 48 47 47 48 47 46 45 42 40 38 37 36 37 40 43 46 50 49 46 42 36 41 45 43 40 33 29 26 23 20 20 16 10 8 4 2 3
9 7 10 15 22 8 11 15 6 21 53 52 53 53 53 50 53 52 50 45 42 41 40 40 40 44 46 54 54 52 50 44 41 38 35 38 38 33 26 21 18 15 12 12 7 1 6 7 8
11 9 9 11 9 5 8 24 11 25 47 58 57 58 59 61 63 55 52 46 42 39 37 36 38 45 51 53 53 53 50 47 40 33 30 32 31 26 23 22 21 17 12 11 8 8 12 10 14
8 9 10 8 8 12 18 23 27 40 45 50 57 64 68 70 61 58 55 50 45 41 38 36 40 46 53 55 61 58 54 49 45 37 32 32 29 27 25 26 23 21 19 15 13 11 11 13 13
10 10 17 13 10 15 16 24 19 17 34 63 78 79 79 78 73 69 62 55 47 41 39 39 43 52 57 60 61 59 58 54 49 41 38 34 30 32 30 28 26 23 18 14 11 8 6 14 12
16 17 10 17 6 6 10 17 16 20 53 60 82 92 86 95 90 79 68 57 49 47 45 44 49 59 65 62 59 62 59 55 49 47 43 42 40 37 32 28 24 20 14 9 7 7 7 9 11
16 15 11 11 2 11 7 18 12 13 23 20 66 79 93 88 87 84 72 63 57 51 48 49 56 60 62 69 70 61 57 59 54 55 53 50 44 38 31 26 21 14 10 8 8 11 14 17 16
13 7 10 5 7 3 6 10 9 10 17 24 51 68 76 88 90 94 83 68 59 56 57 57 60 62 63 62 63 65 62 63 64 62 61 54 46 37 30 23 17 13 12 11 14 17 18 18 17
14 10 11 8 4 10 20 19 12 14 26 15 43 57 68 75 84 87 77 67 63 63 63 61 64 64 65 66 65 64 63 69 71 70 62 53 45 38 30 23 17 15 12 13 13 17 17 17 17
10 13 4 7 1 16 7 13 35 10 13 22 32 53 57 66 77 85 84 77 73 76 73 70 69 68 67 65 64 65 69 67 72 67 59 52 45 37 30 23 17 13 9 9 11 13 16 17 17
18 17 12 15 9 10 2 16 13 19 33 46 55 52 39 58 72 86 87 82 80 82 79 78 76 73 72 69 69 70 72 75 69 60 52 44 39 35 30 23 17 10 5 4 7 11 13 14 14
13 18 11 3 4 4 11 16 19 15 18 26 58 29 33 56 74 84 85 82 82 86 84 83 80 77 74 74 75 75 78 73 67 58 50 43 40 35 31 25 17 11 6 1 5 7 6 6 8
11 15 5 2 4 11 11 14 21 10 20 27 17 25 40 50 69 80 83 83 83 85 86 86 83 80 80 80 79 81 80 74 66 59 53 48 42 37 31 26 20 14 8 2 2 2 2 4 7
6 9 6 10 10 10 5 17 14 20 21 16 21 48 46 54 67 77 81 80 78 85 88 89 89 89 87 87 86 86 86 78 70 61 55 47 42 37 33 29 24 18 11 6 4 2 1 3 8
5 13 13 9 12 11 5 34 8 13 13 23 23 27 40 52 60 69 76 77 80 87 92 93 92 92 91 89 87 90 87 81 73 66 56 49 44 42 37 34 27 20 15 10 6 5 4 5 10
Wind_Direction_500mb
203 185 148 141 62 67 15 52 168 86 50 81 83 103 108 70 69 168 149 189 200 174 165 161 162 156 149 144 131 121 115 103 98 84 65 61 52 45 44 45 50 61 70 72 72 73 76 82 92
155 142 127 99 87 73 288 300 128 131 128 107 90 90 57 51 87 128 146 167 165 170 170 169 166 162 156 150 141 135 126 114 114 90 65 61 57 49 46 46 46 55 67 70 68 68 72 79 90
130 131 97 92 109 151 167 208 169 137 146 145 105 74 76 48 127 150 166 165 156 162 174 172 165 161 164 161 158 148 133 124 126 104 82 77 63 54 50 46 47 53 63 63 63 66 72 80 93
149 92 68 83 112 238 157 194 175 140 126 118 120 72 85 90 125 137 148 152 153 164 174 175 170 164 157 164 163 155 145 141 135 118 111 87 61 58 54 49 49 51 56 61 60 61 66 77 92
80 68 59 84 19 116 150 171 155 141 100 124 139 132 103 109 128 137 143 159 161 159 159 175 177 171 171 171 170 159 141 125 126 131 136 101 80 65 55 50 46 45 49 57 59 60 64 71 81
82 72 65 143 199 227 205 162 152 128 129 124 107 109 141 140 158 149 160 164 160 161 169 186 191 190 179 179 181 173 158 160 146 142 142 121 86 65 52 45 41 39 41 45 52 55 56 59 62
104 81 166 136 169 175 207 138 132 144 132 119 136 109 153 168 174 166 176 170 166 164 182 192 196 202 191 185 190 186 171 165 180 167 163 146 102 65 54 40 38 41 57 57 57 58 58 61 61
87 91 99 141 181 215 214 113 124 158 114 130 167 166 180 179 180 177 181 181 186 184 185 192 195 199 203 199 198 197 193 184 204 195 187 180 149 111 91 58 23 36 57 62 58 58 61 61 61
86 63 96 114 158 213 173 132 138 147 140 142 169 162 168 177 180 188 189 192 197 204 202 201 195 199 206 203 203 207 208 203 212 212 202 201 165 147 127 105 55 31 34 48 57 53 61 63 60
79 98 185 213 177 198 177 176 151 155 135 109 141 153 161 179 186 192 198 200 200 203 204 202 202 202 208 202 198 204 210 212 219 218 212 207 186 173 173 140 83 70 37 34 50 65 72 70 66
113 157 191 165 134 173 169 162 168 153 232 198 185 169 175 186 194 204 206 205 205 206 208 209 210 216 218 203 196 205 210 214 216 202 209 205 204 191 187 180 173 177 115 47 39 58 71 69 76
92 195 180 176 170 164 167 172 186 191 210 217 209 186 184 191 203 212 217 218 218 216 212 211 214 217 217 206 199 205 212 214 219 213 206 198 206 198 187 207 201 211 190 103 50 66 80 68 78
131 226 207 212 200 196 193 214 218 225 199 188 184 189 193 197 206 213 219 224 226 224 219 218 220 221 218 212 208 204 209 214 212 203 202 206 207 200 205 215 211 224 226 220 184 20 258 55 139
176 229 268 251 231 215 201 227 210 222 197 191 196 201 206 210 212 214 215 215 213 208 208 211 213 214 214 211 202 197 203 209 210 201 210 201 197 204 217 221 215 204 202 226 268 298 293 253 290
152 308 311 240 219 220 203 284 235 228 202 201 204 210 213 217 218 217 215 213 214 216 220 220 219 216 212 208 198 194 198 203 203 201 203 202 203 210 211 209 207 202 216 206 242 252 228 252 252
38 54 331 287 158 226 155 263 265 223 199 206 210 213 218 222 225 223 220 222 224 227 232 234 229 220 211 202 191 198 198 201 198 201 200 203 209 203 202 202 198 208 207 222 220 251 289 147 225
1 239 216 311 192 144 175 260 270 213 202 210 214 220 223 223 224 224 225 225 229 232 233 235 229 219 206 195 192 197 197 199 195 197 201 201 198 198 196 194 193 188 182 187 192 200 97 110 119
207 219 242 233 211 171 215 261 260 202 207 220 223 226 225 226 228 224 228 231 235 236 234 231 225 208 198 195 194 197 197 197 197 196 200 194 186 182 182 182 179 180 184 184 172 127 100 103 93
174 194 243 250 219 183 227 240 255 229 226 235 233 232 231 233 229 228 230 231 232 231 230 230 220 202 195 192 192 193 195 192 191 192 195 178 176 176 181 182 175 161 154 149 134 113 94 97 104
242 248 260 293 241 186 255 251 245 216 226 231 236 236 235 232 226 225 226 227 229 228 222 217 202 192 191 195 194 194 192 187 183 188 187 180 182 173 168 165 159 151 153 142 137 133 117 102 110
233 220 231 232 340 257 319 270 234 243 237 239 243 247 245 237 227 221 221 224 221 218 215 206 194 191 190 189 190 190 185 182 179 186 183 176 171 166 164 159 155 145 131 132 115 83 65 64 65
231 211 201 239 141 255 143 284 233 246 242 226 243 240 240 236 230 225 221 221 220 215 206 197 197 195 196 195 194 194 196 190 187 185 179 170 166 162 160 159 147 142 140 127 104 70 52 45 34
232 177 202 233 202 348 214 281 263 215 249 247 248 242 240 240 234 221 217 220 218 210 204 197 198 195 195 196 198 196 193 193 187 178 173 166 161 163 160 154 157 150 127 99 68 55 44 37 34
147 85 48 51 48 261 218 208 200 202 224 245 251 251 247 238 229 221 214 214 210 202 197 195 194 196 196 196 195 195 199 192 182 175 172 167 168 165 161 164 152 130 105 74 47 30 20 16 20
132 120 288 317 324 247 293 225 252 285 243 223 250 259 243 233 223 213 207 206 204 199 196 200 199 200 202 200 197 198 200 196 183 177 176 173 170 167 168 159 147 128 95 55 28 17 17 25 24
195 164 164 216 213 270 358 242 253 230 263 258 259 264 256 225 221 212 208 207 206 201 198 202 202 203 202 200 199 199 195 187 182 179 177 174 174 175 167 162 155 144 116 46 26 24 23 26 20
198 212 170 350 92 360 226 279 275 253 274 260 251 260 226 222 216 212 208 209 208 203 202 203 203 203 203 201 199 193 191 188 184 178 177 179 180 177 173 170 173 172 183 136 30 24 28 37 29
159 164 96 15 221 255 269 270 235 230 239 252 265 231 228 221 214 213 213 213 211 208 205 204 206 206 206 200 195 192 191 189 186 185 183 185 182 180 179 183 184 189 190 167 30 358 49 51 27
147 190 179 141 160 195 295 261 215 213 218 237 254 256 238 224 221 218 216 215 215 210 209 207 208 208 204 199 196 195 192 190 190 188 188 187 185 188 191 191 195 196 195 199 221 197 128 28 2
328 208 162 162 215 235 159 263 176 171 195 208 260 257 244 235 225 222 218 215 214 212 209 209 207 205 203 201 199 196 195 194 193 192 192 191 193 194 196 196 199 201 204 212 222 213 239 301 328
Wind_Speed_850mb
7 5 8 5 8 11 2 3 4 3 7 17 31 31 23 13 5 7 24 18 11 22 31 27 26 26 25 22 18 17 18 17 16 17 19 21 22 25 30 31 29 23 21 21 22 21 22 23 24
9 8 5 7 10 8 6 2 8 7 32 48 40 29 23 7 16 20 10 13 17 25 31 28 26 25 23 20 17 16 15 15 14 12 14 17 20 25 29 31 33 26 22 21 20 19 19 19 20
10 7 4 9 8 9 10 8 12 20 43 12 12 22 9 4 10 14 13 21 23 22 28 29 26 25 23 20 15 14 12 12 12 9 11 14 17 22 26 28 30 30 25 22 20 19 18 16 16
5 5 10 10 7 2 14 13 15 14 11 14 35 17 13 4 6 16 18 25 26 22 26 28 25 24 18 17 16 15 12 11 11 10 12 10 15 20 25 27 28 27 26 23 21 20 19 16 13
8 6 9 8 3 4 5 21 25 10 9 17 10 10 12 24 25 23 21 24 23 24 25 25 26 28 24 17 15 14 12 9 8 10 13 10 15 18 21 24 25 24 22 23 23 22 20 18 13
6 5 10 5 5 3 4 22 20 11 18 18 20 18 13 24 25 26 25 31 31 26 21 23 21 27 27 24 19 20 17 10 6 9 13 11 10 14 18 22 25 22 19 20 22 22 22 21 18
11 8 10 8 9 5 8 14 15 18 19 10 32 11 20 29 28 28 26 35 36 35 33 31 28 26 25 23 20 19 19 10 9 12 14 8 6 9 14 20 23 22 18 19 19 20 21 21 18
6 9 6 4 10 8 7 6 15 25 9 21 22 16 16 41 37 32 31 30 38 36 37 34 36 34 30 28 24 25 23 18 13 12 13 9 8 11 10 13 25 26 24 22 22 20 20 19 19
5 9 2 2 11 8 17 7 7 13 21 11 14 23 22 49 41 36 36 37 38 41 38 34 40 39 36 32 32 29 26 23 19 17 14 11 9 8 12 14 17 18 26 24 24 23 21 23 21
9 8 9 3 6 8 14 13 18 12 14 8 18 27 48 47 42 39 38 38 39 40 39 40 39 41 38 38 33 33 29 25 26 22 20 16 14 14 12 11 11 5 12 21 22 26 27 26 27
4 8 8 4 4 12 13 8 15 21 6 22 34 42 46 46 43 41 40 37 38 40 42 42 42 40 36 41 36 38 38 38 34 28 25 23 19 17 16 11 4 5 4 8 15 17 21 22 20
6 3 5 8 5 7 10 10 10 19 13 24 27 37 43 46 46 45 41 38 36 36 39 41 43 43 41 39 46 42 41 39 39 36 32 29 27 20 28 14 8 4 3 3 7 6 10 12 11
5 3 4 6 8 11 10 13 11 17 20 22 32 37 39 42 44 44 43 41 38 35 36 37 37 38 40 43 48 48 43 41 37 36 34 30 28 33 25 19 15 10 7 1 0 0 3 4 3
6 2 8 11 15 11 11 10 9 19 32 33 37 40 40 40 42 44 43 39 35 32 32 33 34 36 40 46 45 47 44 43 41 35 33 37 39 35 31 24 16 12 11 4 5 12 6 3 2
1 6 11 20 16 10 13 12 20 25 41 42 43 43 43 43 43 43 40 38 36 34 33 33 34 37 41 45 45 46 43 41 38 39 41 38 39 37 30 24 20 17 16 15 15 12 8 6 2
3 6 3 6 19 7 15 18 11 34 50 52 48 47 47 48 47 46 45 42 40 38 37 36 37 40 43 46 50 49 46 42 36 41 45 43 40 33 29 26 23 20 20 16 10 8 4 2 3
9 7 10 15 22 8 11 15 6 21 53 52 53 53 53 50 53 52 50 45 42 41 40 40 40 44 46 54 54 52 50 44 41 38 35 38 38 33 26 21 18 15 12 12 7 1 6 7 8
11 9 9 11 9 5 8 24 11 25 47 58 57 58 59 61 63 55 52 46 42 39 37 36 38 45 51 53 53 53 50 47 40 33 30 32 31 26 23 22 21 17 12 11 8 8 12 10 14
8 9 10 8 8 12 18 23 27 40 45 50 57 64 68 70 61 58 55 50 45 41 38 36 40 46 53 55 61 58 54 49 45 37 32 32 29 27 25 26 23 21 19 15 13 11 11 13 13
10 10 17 13 10 15 16 24 19 17 34 63 78 79 79 78 73 69 62 55 47 41 39 39 43 52 57 60 61 59 58 54 49 41 38 34 30 32 30 28 26 23 18 14 11 8 6 14 12
16 17 10 17 6 6 10 17 16 20 53 60 82 92 86 95 90 79 68 57 49 47 45 44 49 59 65 62 59 62 59 55 49 47 43 42 40 37 32 28 24 20 14 9 7 7 7 9 11
16 15 11 11 2 11 7 18 12 13 23 20 66 79 93 88 87 84 72 63 57 51 48 49 56 60 62 69 70 61 57 59 54 55 53 50 44 38 31 26 21 14 10 8 8 11 14 17 16
13 7 10 5 7 3 6 10 9 10 17 24 51 68 76 88 90 94 83 68 59 56 57 57 60 62 63 62 63 65 62 63 64 62 61 54 46 37 30 23 17 13 12 11 14 17 18 18 17
14 10 11 8 4 10 20 19 12 14 26 15 43 57 68 75 84 87 77 67 63 63 63 61 64 64 65 66 65 64 63 69 71 70 62 53 45 38 30 23 17 15 12 13 13 17 17 17 17
10 13 4 7 1 16 7 13 35 10 13 22 32 53 57 66 77 85 84 77 73 76 73 70 69 68 67 65 64 65 69 67 72 67 59 52 45 37 30 23 17 13 9 9 11 13 16 17 17
18 17 12 15 9 10 2 16 13 19 33 46 55 52 39 58 72 86 87 82 80 82 79 78 76 73 72 69 69 70 72 75 69 60 52 44 39 35 30 23 17 10 5 4 7 11 13 14 14
13 18 11 3 4 4 11 16 19 15 18 26 58 29 33 56 74 84 85 82 82 86 84 83 80 77 74 74 75 75 78 73 67 58 50 43 40 35 31 25 17 11 6 1 5 7 6 6 8
11 15 5 2 4 11 11 14 21 10 20 27 17 25 40 50 69 80 83 83 83 85 86 86 83 80 80 80 79 81 80 74 66 59 53 48 42 37 31 26 20 14 8 2 2 2 2 4 7
6 9 6 10 10 10 5 17 14 20 21 16 21 48 46 54 67 77 81 80 78 85 88 89 89 89 87 87 86 86 86 78 70 61 55 47 42 37 33 29 24 18 11 6 4 2 1 3 8
5 13 13 9 12 11 5 34 8 13 13 23 23 27 40 52 60 69 76 77 80 87 92 93 92 92 91 89 87 90 87 81 73 66 56 49 44 42 37 34 27 20 15 10 6 5 4 5 10
Wind_Direction_850mb
203 185 148 141 62 67 15 52 168 86 50 81 83 103 108 70 69 168 149 189 200 174 165 161 162 156 149 144 131 121 115 103 98 84 65 61 52 45 44 45 50 61 70 72 72 73 76 82 92
155 142 127 99 87 73 288 300 128 131 128 107 90 90 57 51 87 128 146 167 165 170 170 169 166 162 156 150 141 135 126 114 114 90 65 61 57 49 46 46 46 55 67 70 68 68 72 79 90
130 131 97 92 109 151 167 208 169 137 146 145 105 74 76 48 127 150 166 165 156 162 174 172 165 161 164 161 158 148 133 124 126 104 82 77 63 54 50 46 47 53 63 63 63 66 72 80 93
149 92 68 83 112 238 157 194 175 140 126 118 120 72 85 90 125 137 148 152 153 164 174 175 170 164 157 164 163 155 145 141 135 118 111 87 61 58 54 49 49 51 56 61 60 61 66 77 92
80 68 59 84 19 116 150 171 155 141 100 124 139 132 103 109 128 137 143 159 161 159 159 175 177 171 171 171 170 159 141 125 126 131 136 101 80 65 55 50 46 45 49 57 59 60 64 71 81
82 72 65 143 199 227 205 162 152 128 129 124 107 109 141 140 158 149 160 164 160 161 169 186 191 190 179 179 181 173 158 160 146 142 142 121 86 65 52 45 41 39 41 45 52 55 56 59 62
104 81 166 136 169 175 207 138 132 144 132 119 136 109 153 168 174 166 176 170 166 164 182 192 196 202 191 185 190 186 171 165 180 167 163 146 102 65 54 40 38 41 57 57 57 58 58 61 61
87 91 99 141 181 215 214 113 124 158 114 130 167 166 180 179 180 177 181 181 186 184 185 192 195 199 203 199 198 197 193 184 204 195 187 180 149 111 91 58 23 36 57 62 58 58 61 61 61
86 63 96 114 158 213 173 132 138 147 140 142 169 162 168 177 180 188 189 192 197 204 202 201 195 199 206 203 203 207 208 203 212 212 202 201 165 147 127 105 55 31 34 48 57 53 61 63 60
79 98 185 213 177 198 177 176 151 155 135 109 141 153 161 179 186 192 198 200 200 203 204 202 202 202 208 202 198 204 210 212 219 218 212 207 186 173 173 140 83 70 37 34 50 65 72 70 66
113 157 191 165 134 173 169 162 168 153 232 198 185 169 175 186 194 204 206 205 205 206 208 209 210 216 218 203 196 205 210 214 216 202 209 205 204 191 187 180 173 177 115 47 39 58 71 69 76
92 195 180 176 170 164 167 172 186 191 210 217 209 186 184 191 203 212 217 218 218 216 212 211 214 217 217 206 199 205 212 214 219 213 206 198 206 198 187 207 201 211 190 103 50 66 80 68 78
131 226 207 212 200 196 193 214 218 225 199 188 184 189 193 197 206 213 219 224 226 224 219 218 220 221 218 212 208 204 209 214 212 203 202 206 207 200 205 215 211 224 226 220 184 20 258 55 139
176 229 268 251 231 215 201 227 210 222 197 191 196 201 206 210 212 214 215 215 213 208 208 211 213 214 214 211 202 197 203 209 210 201 210 201 197 204 217 221 215 204 202 226 268 298 293 253 290
152 308 311 240 219 220 203 284 235 228 202 201 204 210 213 217 218 217 215 213 214 216 220 220 219 216 212 208 198 194 198 203 203 201 203 202 203 210 211 209 207 202 216 206 242 252 228 252 252
38 54 331 287 158 226 155 263 265 223 199 206 210 213 218 222 225 223 220 222 224 227 232 234 229 220 211 202 191 198 198 201 198 201 200 203 209 203 202 202 198 208 207 222 220 251 289 147 225
1 239 216 311 192 144 175 260 270 213 202 210 214 220 223 223 224 224 225 225 229 232 233 235 229 219 206 195 192 197 197 199 195 197 201 201 198 198 196 194 193 188 182 187 192 200 97 110 119
207 219 242 233 211 171 215 261 260 202 207 220 223 226 225 226 228 224 228 231 235 236 234 231 225 208 198 195 194 197 197 197 197 196 200 194 186 182 182 182 179 180 184 184 172 127 100 103 93
174 194 243 250 219 183 227 240 255 229 226 235 233 232 231 233 229 228 230 231 232 231 230 230 220 202 195 192 192 193 195 192 191 192 195 178 176 176 181 182 175 161 154 149 134 113 94 97 104
242 248 260 293 241 186 255 251 245 216 226 231 236 236 235 232 226 225 226 227 229 228 222 217 202 192 191 195 194 194 192 187 183 188 187 180 182 173 168 165 159 151 153 142 137 133 117 102 110
233 220 231 232 340 257 319 270 234 243 237 239 243 247 245 237 227 221 221 224 221 218 215 206 194 191 190 189 190 190 185 182 179 186 183 176 171 166 164 159 155 145 131 132 115 83 65 64 65
231 211 201 239 141 255 143 284 233 246 242 226 243 240 240 236 230 225 221 221 220 215 206 197 197 195 196 195 194 194 196 190 187 185 179 170 166 162 160 159 147 142 140 127 104 70 52 45 34
232 177 202 233 202 348 214 281 263 215 249 247 248 242 240 240 234 221 217 220 218 210 204 197 198 195 195 196 198 196 193 193 187 178 173 166 161 163 160 154 157 150 127 99 68 55 44 37 34
147 85 48 51 48 261 218 208 200 202 224 245 251 251 247 238 229 221 214 214 210 202 197 195 194 196 196 196 195 195 199 192 182 175 172 167 168 165 161 164 152 130 105 74 47 30 20 16 20
132 120 288 317 324 247 293 225 252 285 243 223 250 259 243 233 223 213 207 206 204 199 196 200 199 200 202 200 197 198 200 196 183 177 176 173 170 167 168 159 147 128 95 55 28 17 17 25 24
195 164 164 216 213 270 358 242 253 230 263 258 259 264 256 225 221 212 208 207 206 201 198 202 202 203 202 200 199 199 195 187 182 179 177 174 174 175 167 162 155 144 116 46 26 24 23 26 20
198 212 170 350 92 360 226 279 275 253 274 260 251 260 226 222 216 212 208 209 208 203 202 203 203 203 203 201 199 193 191 188 184 178 177 179 180 177 173 170 173 172 183 136 30 24 28 37 29
159 164 96 15 221 255 269 270 235 230 239 252 265 231 228 221 214 213 213 213 211 208 205 204 206 206 206 200 195 192 191 189 186 185 183 185 182 180 179 183 184 189 190 167 30 358 49 51 27
147 190 179 141 160 195 295 261 215 213 218 237 254 256 238 224 221 218 216 215 215 210 209 207 208 208 204 199 196 195 192 190 190 188 188 187 185 188 191 191 195 196 195 199 221 197 128 28 2
328 208 162 162 215 235 159 263 176 171 195 208 260 257 244 235 225 222 218 215 214 212 209 209 207 205 203 201 199 196 195 194 193 192 192 191 193 194 196 196 199 201 204 212 222 213 239 301 328